Regional Weather Roundup
Issued by NWS Cleveland, OH

Home | Current Version | Previous Version | Text Only | Print | Product List | Glossary Off
Versions: 1 2 3 4 5 6 7 8 9 10 11 12 13 14 15 16 17 18 19 20 21 22 23 24 25 26 27 28 29 30 31 32 33 34 35 36 37 38 39 40 41 42 43 44 45 46 47 48 49 50

000
ASUS41 KCLE 271110
RWRCLE
OHIO REGIONAL WEATHER ROUNDUP
NATIONAL WEATHER SERVICE CLEVELAND, OH
600 AM EST MON FEB 27 2017

NOTE: "FAIR" INDICATES FEW OR NO CLOUDS BELOW 12,000 FEET WITH NO
SIGNIFICANT WEATHER AND/OR OBSTRUCTIONS TO VISIBILITY.

OHZ001>008-015>018-024>027-034-035-043-044-271200-
   NORTHWEST OHIO

CITY           SKY/WX    TMP DP  RH WIND       PRES   REMARKS
DEFIANCE       CLOUDY    29  20  69 S5        30.19R WCI  24
FINDLAY        CLOUDY    33  22  63 S8        30.19R WCI  26
TOLEDO EXPRESS CLOUDY    34  22  61 SW6       30.18R WCI  29
TOLEDO EXEC    CLOUDY    32  23  69 SW8       30.20R WCI  25
LIMA           CLOUDY    39  24  55 S7        30.19R
$$

OHZ009>014-019>023-028>033-038-089-271200-
   NORTHEAST OHIO

CITY           SKY/WX    TMP DP  RH WIND       PRES   REMARKS
CLE-HOPKINS    CLOUDY    38  18  44 S9        30.23R
CLE-LAKEFRONT  CLOUDY    40  18  41 S14       30.21R
CUY CO. ARPT   NOT AVBL
LORAIN-ELYRIA  CLOUDY    32  19  58 SW7       30.22R WCI  26
ASHTABULA      CLOUDY    35  18  49 SW9       30.21R WCI  28
AKRON-CANTON   CLOUDY    35  17  47 S7        30.22R WCI  29
WOOSTER        CLOUDY    35  19  52 SW7       30.23R WCI  29
MANSFIELD      CLOUDY    35  21  56 S7        30.21R WCI  29
YOUNGSTOWN     PTCLDY    33  16  49 S6        30.22R WCI  28
$$

OHZ042-051>053-060>062-070>072-077>081-271200-
  SOUTHWEST OHIO

CITY           SKY/WX    TMP DP  RH WIND       PRES   REMARKS
CINC-COVINGTON LGT RAIN  44  30  57 S7        30.22R
CINC-LUNKEN    CLOUDY    42  28  57 CALM      30.25R
HAMILTON       CLOUDY    40  28  62 CALM      30.24R
DAYTON         CLOUDY    40  21  46 SW3       30.22S
WRIGHT-PAT AFB CLOUDY    40  23  50 S6        30.22R
DAYTON GENERAL CLOUDY    41  22  46 CALM      30.21S
WILMINGTON     CLOUDY    39  25  57 S5        30.22S
$$

OHZ036-037-039>041-045>050-054>059-063>069-073>076-082>088-271200-
  CENTRAL AND SOUTHEAST OHIO

CITY           SKY/WX    TMP DP  RH WIND       PRES   REMARKS
COLUMBUS       CLOUDY    42  21  43 S3        30.23R
OSU AIRPORT    CLOUDY    40  24  53 S5        30.23R
BOLTON FIELD   CLOUDY    38  26  61 S3        30.24S
RICKENBACK AFB CLOUDY    38  23  53 S5        30.24S
NEWARK         CLOUDY    36  27  69 CALM      30.24R
MARION         CLOUDY    39  23  52 SW7       30.22R
LANCASTER      CLOUDY    40  23  50 SE7       30.25R
ZANESVILLE     CLOUDY    36  21  54 SE3       30.25R
NEW PHILLY     NOT AVBL
$$




USA.gov is the U.S. government's official web portal to all federal, state and local government web resources and services.